Back to catalog

FENGYUN 1C DEB

AliveSSO
NORAD 32180·DEBRIS·🇨🇳 China

Launched May 10, 1999 from Taiyuan Satellite Launch Center

Loading…

Next Passes (next 24 hours)

TLE

FreshSource: Space-Track

Epoch: Sep 13, 2026, 08:44 UTC

1 32180U 99025CUA 26256.36435509  .00000018  00000-0  55559-4 0  9997
2 32180  99.5494 305.6199 0136240 206.6496 214.4120 13.82382027980623

Track FENGYUN 1C DEB in real time with AllMySat

Download on the App Store